Météo par heure à Juquiá

Ce jour, 17 Juin, Jeudi

Heure Température Précipitation Vent Pression Humidité
00:00 +18°C° 0.2 mm 1 m/s 764 mmHg 99%
01:00 +18°C° 0.1 mm 1 m/s 764 mmHg 99%
02:00 +16°C° 0.1 mm 1 m/s 764 mmHg 99%
03:00 +15°C° 0 mm 0 m/s 764 mmHg 99%
04:00 +15°C° 0.1 mm 0 m/s 764 mmHg 99%
05:00 +15°C° 0.1 mm 0 m/s 764 mmHg 99%
06:00 +15°C° 0.1 mm 0 m/s 764 mmHg 99%
07:00 +15°C° 0 mm 0 m/s 764 mmHg 98%
08:00 +16°C° 0 mm 1 m/s 765 mmHg 98%
09:00 +16°C° 0 mm 0 m/s 765 mmHg 98%
10:00 +18°C° 0.2 mm 1 m/s 765 mmHg 96%
11:00 +18°C° 0.2 mm 1 m/s 765 mmHg 95%
12:00 +19°C° 0.2 mm 1 m/s 765 mmHg 94%
13:00 +19°C° 0.2 mm 1 m/s 765 mmHg 93%
14:00 +19°C° 0.2 mm 1 m/s 765 mmHg 92%
15:00 +19°C° 0.2 mm 1 m/s 764 mmHg 91%
16:00 +18°C° 0.1 mm 1 m/s 764 mmHg 93%
17:00 +18°C° 0.1 mm 1 m/s 764 mmHg 95%
18:00 +15°C° 0.1 mm 0 m/s 765 mmHg 96%
19:00 +15°C° 0.1 mm 0 m/s 765 mmHg 97%
20:00 +15°C° 0.1 mm 0 m/s 765 mmHg 97%
21:00 +15°C° 0.1 mm 0 m/s 766 mmHg 97%
22:00 +15°C° 0 mm 0 m/s 766 mmHg 97%
23:00 +15°C° 0 mm 0 m/s 766 mmHg 97%

Demain, 18 Juin, Vendredi

Heure Température Précipitation Vent Pression Humidité
00:00 +15°C° 0 mm 0 m/s 765 mmHg 97%
01:00 +15°C° 0 mm 0 m/s 765 mmHg 97%
02:00 +15°C° 0 mm 0 m/s 765 mmHg 97%
03:00 +15°C° 0 mm 0 m/s 765 mmHg 97%
04:00 +15°C° 0 mm 0 m/s 765 mmHg 97%
05:00 +15°C° 0 mm 0 m/s 765 mmHg 97%
06:00 +15°C° 0 mm 0 m/s 765 mmHg 97%
07:00 +15°C° 0 mm 0 m/s 765 mmHg 97%
08:00 +15°C° 0 mm 0 m/s 766 mmHg 97%
09:00 +15°C° 0 mm 0 m/s 766 mmHg 97%
10:00 +15°C° 0 mm 0 m/s 766 mmHg 96%
11:00 +15°C° 0 mm 0 m/s 766 mmHg 95%
12:00 +16°C° 0 mm 0 m/s 767 mmHg 95%
13:00 +16°C° 0 mm 0 m/s 766 mmHg 94%
14:00 +16°C° 0 mm 0 m/s 766 mmHg 94%
15:00 +16°C° 0 mm 0 m/s 765 mmHg 93%
16:00 +16°C° 0 mm 0 m/s 765 mmHg 95%
17:00 +16°C° 0 mm 0 m/s 766 mmHg 96%
18:00 +15°C° 0 mm 0 m/s 766 mmHg 98%
19:00 +15°C° 0 mm 0 m/s 766 mmHg 98%
20:00 +15°C° 0 mm 0 m/s 766 mmHg 98%
21:00 +15°C° 0 mm 0 m/s 766 mmHg 98%
22:00 +15°C° 1 mm 0 m/s 766 mmHg 98%
23:00 +15°C° 1 mm 0 m/s 766 mmHg 99%

Après-demain, 19 Juin, Samedi

Heure Température Précipitation Vent Pression Humidité
00:00 +15°C° 1 mm 0 m/s 766 mmHg 99%
01:00 +15°C° 0.1 mm 0 m/s 765 mmHg 99%
02:00 +15°C° 0.1 mm 0 m/s 765 mmHg 99%
03:00 +15°C° 0.1 mm 0 m/s 764 mmHg 99%
04:00 +15°C° 0.2 mm 0 m/s 764 mmHg 99%
05:00 +15°C° 0.2 mm 0 m/s 764 mmHg 99%
06:00 +15°C° 0.2 mm 0 m/s 764 mmHg 99%
07:00 +16°C° 0.9 mm 0 m/s 764 mmHg 99%
08:00 +16°C° 0.9 mm 0 m/s 764 mmHg 99%
09:00 +16°C° 0.9 mm 0 m/s 764 mmHg 99%
10:00 +16°C° 0.3 mm 0 m/s 764 mmHg 99%
11:00 +16°C° 0.3 mm 0 m/s 764 mmHg 99%
12:00 +17°C° 0.3 mm 0 m/s 764 mmHg 99%
13:00 +17°C° 0 mm 0 m/s 763 mmHg 98%
14:00 +17°C° 0 mm 0 m/s 763 mmHg 98%
15:00 +17°C° 0 mm 0 m/s 762 mmHg 98%
16:00 +17°C° 0.5 mm 0 m/s 762 mmHg 98%
17:00 +17°C° 0.5 mm 0 m/s 762 mmHg 99%
18:00 +16°C° 0.5 mm 0 m/s 762 mmHg 99%
19:00 +16°C° 0.7 mm 0 m/s 762 mmHg 99%
20:00 +16°C° 0.7 mm 0 m/s 763 mmHg 99%
21:00 +18°C° 0.7 mm 1 m/s 763 mmHg 99%
22:00 +18°C° 0.6 mm 1 m/s 763 mmHg 99%
23:00 +18°C° 0.6 mm 1 m/s 762 mmHg 99%

20 Juin, Dimanche

Heure Température Précipitation Vent Pression Humidité
00:00 +18°C° 0.6 mm 1 m/s 762 mmHg 99%
01:00 +16°C° 0.4 mm 0 m/s 761 mmHg 99%
02:00 +16°C° 0.4 mm 0 m/s 761 mmHg 99%
03:00 +16°C° 0.4 mm 0 m/s 761 mmHg 98%
04:00 +16°C° 0 mm 0 m/s 761 mmHg 98%
05:00 +15°C° 0 mm 0 m/s 761 mmHg 99%
06:00 +15°C° 0 mm 0 m/s 761 mmHg 99%
07:00 +16°C° 0 mm 0 m/s 762 mmHg 97%
08:00 +17°C° 0 mm 0 m/s 762 mmHg 96%
09:00 +17°C° 0 mm 0 m/s 763 mmHg 94%
10:00 +21°C° 0 mm 1 m/s 762 mmHg 83%
11:00 +23°C° 0 mm 1 m/s 762 mmHg 72%
12:00 +25°C° 0 mm 1 m/s 762 mmHg 60%
13:00 +25°C° 0 mm 1 m/s 761 mmHg 61%
14:00 +25°C° 0 mm 2 m/s 761 mmHg 61%
15:00 +25°C° 0 mm 2 m/s 761 mmHg 62%
16:00 +21°C° 0 mm 2 m/s 762 mmHg 73%
17:00 +20°C° 0 mm 1 m/s 762 mmHg 84%
18:00 +18°C° 0 mm 1 m/s 763 mmHg 95%
19:00 +18°C° 0.1 mm 1 m/s 763 mmHg 95%
20:00 +16°C° 0.1 mm 0 m/s 764 mmHg 95%
21:00 +17°C° 0.1 mm 0 m/s 765 mmHg 94%
22:00 +16°C° 0 mm 0 m/s 765 mmHg 95%
23:00 +16°C° 0 mm 0 m/s 764 mmHg 95%

21 Juin, Lundi

Heure Température Précipitation Vent Pression Humidité
00:00 +18°C° 0 mm 1 m/s 764 mmHg 96%
01:00 +16°C° 0 mm 0 m/s 764 mmHg 96%
02:00 +16°C° 0 mm 0 m/s 764 mmHg 96%
03:00 +16°C° 0 mm 0 m/s 764 mmHg 95%
04:00 +16°C° 0 mm 0 m/s 764 mmHg 96%
05:00 +16°C° 0 mm 0 m/s 764 mmHg 96%
06:00 +15°C° 0 mm 0 m/s 763 mmHg 97%
07:00 +16°C° 0 mm 0 m/s 764 mmHg 96%
08:00 +16°C° 0 mm 0 m/s 764 mmHg 95%
09:00 +17°C° 0 mm 0 m/s 764 mmHg 94%
10:00 +17°C° 0 mm 0 m/s 764 mmHg 93%
11:00 +17°C° 0 mm 0 m/s 764 mmHg 91%
12:00 +18°C° 0 mm 0 m/s 764 mmHg 90%
13:00 +18°C° 0 mm 0 m/s 763 mmHg 89%
14:00 +18°C° 0 mm 0 m/s 763 mmHg 87%
15:00 +18°C° 0 mm 0 m/s 762 mmHg 86%
16:00 +18°C° 0 mm 0 m/s 762 mmHg 89%
17:00 +17°C° 0 mm 0 m/s 762 mmHg 92%
18:00 +17°C° 0 mm 0 m/s 763 mmHg 95%
19:00 +17°C° 0 mm 0 m/s 763 mmHg 96%
20:00 +17°C° 0 mm 0 m/s 763 mmHg 96%
21:00 +17°C° 0 mm 0 m/s 763 mmHg 96%
22:00 +16°C° 0 mm 0 m/s 763 mmHg 97%
23:00 +16°C° 0 mm 0 m/s 763 mmHg 98%

22 Juin, Mardi

Heure Température Précipitation Vent Pression Humidité
00:00 +16°C° 0 mm 0 m/s 763 mmHg 99%
01:00 +16°C° 0.1 mm 0 m/s 762 mmHg 99%
02:00 +16°C° 0.1 mm 0 m/s 762 mmHg 99%
03:00 +16°C° 0.1 mm 0 m/s 762 mmHg 99%
04:00 +16°C° 0.2 mm 0 m/s 762 mmHg 99%
05:00 +16°C° 0.2 mm 0 m/s 762 mmHg 99%
06:00 +16°C° 0.2 mm 0 m/s 762 mmHg 99%
07:00 +17°C° 0.3 mm 0 m/s 762 mmHg 98%
08:00 +17°C° 0.3 mm 0 m/s 763 mmHg 97%
09:00 +18°C° 0.3 mm 0 m/s 763 mmHg 95%
10:00 +20°C° 0.1 mm 0 m/s 763 mmHg 90%
11:00 +21°C° 0.1 mm 0 m/s 762 mmHg 84%
12:00 +25°C° 0.1 mm 1 m/s 762 mmHg 78%
13:00 +23°C° 0 mm 0 m/s 761 mmHg 75%
14:00 +24°C° 0 mm 0 m/s 761 mmHg 73%
15:00 +24°C° 0 mm 0 m/s 760 mmHg 70%
16:00 +23°C° 0.1 mm 0 m/s 761 mmHg 79%
17:00 +23°C° 0.1 mm 1 m/s 761 mmHg 88%
18:00 +21°C° 0.1 mm 1 m/s 762 mmHg 97%
19:00 +20°C° 0 mm 1 m/s 762 mmHg 98%
20:00 +18°C° 0 mm 0 m/s 763 mmHg 98%
21:00 +17°C° 0 mm 0 m/s 763 mmHg 99%
22:00 +18°C° 0 mm 0 m/s 763 mmHg 99%
23:00 +18°C° 0 mm 0 m/s 763 mmHg 99%
Voir plus

Nous avons besoin de votre consentement

Meteoprog et ses fournisseurs de services peuvent stocker et accéder à des données personnelles telles que des cookies, des identifiants d'appareils ou d'autres technologies similaires sur votre appareil et traiter ces données pour personnaliser le contenu et les publicités, ainsi que pour fournir des fonctionnalités de médias sociaux et analyser le trafic.

  • Stocker et/ou accéder à des informations sur votre appareil

    Des cookies, des identifiants d'appareils ou d'autres informations peuvent être stockés ou accessibles sur votre appareil aux fins indiquées ci-dessus.

  • Annonces et contenus personnalisés, mesure des annonces et des contenus, connaissance de l'audience et développement de produits

    Les annonces et le contenu peuvent être personnalisés en fonction d'un profil. D'autres données peuvent être ajoutées pour mieux personnaliser les annonces et le contenu. Les performances des publicités et du contenu peuvent être mesurées. Il est possible d'obtenir des informations sur le public qui a vu les publicités et le contenu. Ces données peuvent être utilisées pour développer ou améliorer l'expérience de l'utilisateur, les systèmes et les logiciels.

En cliquant sur "J'accepte", vous autorisez l'utilisation de cookies, des identifiants d'appareils, des balises web ou d'autres technologies similaires. Vos paramètres peuvent être modifiés dans le navigateur de votre appareil.

Dans certains cas, des intérêts légitimes peuvent être invoqués plutôt qu'un consentement. Vous pouvez en savoir plus à ce sujet dans notre Politique de confidentialité et de cookies.